Regional Weather Roundup
Issued by NWS New Orleans/Baton Rouge, LA

Home | Current Version | Previous Version | Text Only | Print | Product List | Glossary On
Versions: 1 2 3 4 5 6 7 8 9 10 11 12 13 14 15 16 17 18 19 20 21 22 23 24 25 26 27 28 29 30 31 32 33 34 35 36 37 38 39 40 41 42 43 44 45 46 47 48 49 50
000
ASUS44 KLIX 240412
RWRLIX
NEW ORLEANS REGIONAL WEATHER ROUNDUP
NATIONAL WEATHER SERVICE NEW ORLEANS LA
1100 PM CDT SAT MAY 23 2015

NOTE: "FAIR" INDICATES FEW OR NO CLOUDS BELOW 12,000 FEET WITH NO
      SIGNIFICANT WEATHER AND/OR OBSTRUCTIONS TO VISIBILITY.
      SKY/WX - SKY CONDITION AND SIGNIFICANT WEATHER.
      TMP - AIR TEMPERATURE.     DP    - DEWPOINT TEMPERATURE.
      RH  - RELATIVE HUMIDITY.   PRES  - PRESSURE.
      HI  - HEAT INDEX.          WCI   - WIND CHILL INDEX.

*  THESE STATIONS ARE NOT NWS OR FAA STATIONS AND ARE NOT UNDER
   NWS QUALITY CONTROL.

LAZ038-040-048-061>063-065>067-069-240500-
SOUTHEAST LOUISIANA

CITY           SKY/WX    TMP DP  RH WIND       PRES   REMARKS
N.O. AUDUBON     N/A     78  73  83 MISG        N/A
N.O. INTL ARPT PTCLDY    78  70  76 SE8       30.11S
N.O. LAKEFRONT PTCLDY    81  70  69 SE13      30.12R
SLIDELL        CLEAR     76  72  87 E3        30.12R
BATON ROUGE    PTCLDY    75  71  87 E6        30.10S
BOOTHVILLE     CLEAR     78  73  84 SE6       30.13R
BELLE CHASSE   PTCLDY    79  70  74 SE10      30.10F
BOGALUSA*        N/A     75  67  78 CALM      30.15R
GALLIANO*      MOCLDY    81  73  76 SE3       30.11S
NEW ROADS*       N/A     73  72  95 CALM      30.10S
GONZALES*        N/A     76  73  91 CALM      30.10R
HAMMOND*       CLEAR     77  68  73 E5        30.13S
HOUMA*         PTCLDY    77  73  88 SE7       30.10S
PORT FOURCHON* PTCLDY    81  73  78 SE10G21   30.11R

$$

MSZ070-080>082-240500-
SOUTHERN MISSISSIPPI

CITY           SKY/WX    TMP DP  RH WIND       PRES   REMARKS
MCCOMB         PTCLDY    71  69  93 SE5       30.13R
GULFPORT       PTCLDY    79  70  74 SE17      30.12F
BILOXI         PTCLDY    79  72  79 SE12      30.13F
PASCAGOULA     PTCLDY    70  68  93 CALM      30.15S

$$

COASTAL OBSERVATIONS
LAKE AND NEARSHORE STATIONS

STATION/POSITION TIME  TEMP    WIND        PRES    WAVE
                       AIR SEA DIR/SP/G            HT/PER
                 (UTC) (F)     (DEG/KT/KT) (MB)    (FT/S)
PASCAGOULA       0300   79     130/  7/ 10 1020.6
WAVELAND YACHT   0300   80 81  130/ 15/ 18 1020.3
GRAND ISLE       0300   80 83  100/  7/ 15 1019.5
SOUTHWEST PASS   0300   80 75  120/ 17/ 19 1020.1
NEW CANAL        0300   79 82  120/  1/  5 1018.9
SHELL BEACH      0300   80 83  110/ 15/ 17 1019.3

OFFSHORE STATIONS

STATION/POSITION TIME  TEMP    WIND        PRES    WAVE
                       AIR SEA DIR/SP/G            HT/PER
                 (UTC) (F)     (DEG/KT/KT) (MB)    (FT/S)
64 S DAUPHIN ISL 0350   80 80  110/ 19/ 21 1020.8    3/ 5

$$



USA.gov is the U.S. government's official web portal to all federal, state and local government web resources and services.